Weather History for Grafton, ND

Change the Weather History Date:

Tuesday, March 5, 2013

  Actual Average Record
Temperature  
Mean Temperature 19 °F -  
Max Temperature 23 °F 30 °F 55 °F (1988)
Min Temperature 15 °F 8 °F -27 °F (1960)
Degree Days  
Heating Degree Days 46    
Moisture  
Dew Point 18 °F    
Average Humidity 90    
Maximum Humidity 100    
Minimum Humidity 80    
Precipitation  
Precipitation 0.00 in - - ()
Sea Level Pressure  
Sea Level Pressure 30.30 in    
Wind  
Wind Speed 15 mph (North)    
Max Wind Speed 20 mph    
Max Gust Speed 24 mph    
Visibility 6 miles    
Events Rain , Snow    
Averages and records for this station are not official NWS values.
T = Trace of Precipitation, MM = Missing Value Source: NWS Daily Summary

Daily Weather History Graph

Daily Weather History Graph

Search for Another Location

Airport:

Trip Planner

Search our weather history database for the weather conditions in past years. The results will help you decide how hot, cold, wet, or windy it might be!

Date:

Astronomy

Mar. 05, 2013 Rise Set
Actual Time 7:02 AM CST 6:20 PM CST
Civil Twilight 6:31 AM CST 6:51 PM CST
Nautical Twilight 5:55 AM CST 7:27 PM CST
Astronomical Twilight 5:18 AM CST 8:04 PM CST
Moon 2:37 AM CST (3/5) 11:39 AM CST (3/5)
Length of Visible Light 12h 20m
Length of Day
11h 17m
Last Quarter, 40% of the Moon is Illuminated
Mar 5
Last Quarter
Mar 11
New
Mar 19
First Quarter
Mar 27
Full
Apr 2
Last Quarter

Hourly Weather History & Observations

Time (CST) Temp. Windchill Dew Point Humidity Pressure Visibility Wind Dir Wind Speed Gust Speed Precip Events Conditions
12:15 AM 23.0 °F 10.1 °F 23.0 °F 100% 30.10 in 2.0 mi NE 15.0 mph - N/A Snow Light Snow
12:35 AM 23.0 °F 10.1 °F 23.0 °F 100% 30.10 in 1.8 mi NNE 15.0 mph - N/A Snow Light Snow
12:55 AM 23.0 °F 10.1 °F 23.0 °F 100% 30.10 in 1.5 mi NNE 15.0 mph - N/A Snow Light Snow
1:15 AM 23.0 °F 10.6 °F 23.0 °F 100% 30.11 in 1.8 mi NNE 13.8 mph - N/A Snow Light Snow
1:55 AM 23.0 °F 11.1 °F 23.0 °F 100% 30.13 in 1.5 mi NNE 12.7 mph - N/A Snow Light Snow
2:15 AM 23.0 °F 10.6 °F 23.0 °F 100% 30.13 in 1.8 mi NNE 13.8 mph - N/A Snow Light Snow
2:35 AM 23.0 °F 10.6 °F 23.0 °F 100% 30.14 in 1.8 mi NNE 13.8 mph - N/A Snow Light Snow
2:55 AM 23.0 °F 11.7 °F 23.0 °F 100% 30.14 in 2.0 mi NNE 11.5 mph - N/A Snow Light Snow
3:15 AM 23.0 °F 11.1 °F 21.2 °F 93% 30.15 in 2.5 mi North 12.7 mph - N/A Snow Light Snow
3:35 AM 23.0 °F 11.1 °F 21.2 °F 93% 30.16 in 3.0 mi North 12.7 mph - N/A Snow Light Snow
3:55 AM 23.0 °F 11.7 °F 21.2 °F 93% 30.16 in 2.5 mi North 11.5 mph - N/A Snow Light Snow
4:15 AM 21.2 °F 7.8 °F 21.2 °F 100% 30.16 in 2.5 mi North 15.0 mph - N/A Snow Light Snow
4:35 AM 21.2 °F 8.9 °F 19.4 °F 93% 30.17 in 2.0 mi North 12.7 mph - N/A Snow Light Snow
4:55 AM 21.2 °F 7.8 °F 19.4 °F 93% 30.18 in 2.5 mi North 15.0 mph - N/A Snow Light Snow
5:15 AM 21.2 °F 8.3 °F 19.4 °F 93% 30.19 in 2.0 mi North 13.8 mph - N/A Rain Light Freezing Rain
5:35 AM 21.2 °F 7.8 °F 19.4 °F 93% 30.20 in 2.5 mi North 15.0 mph - N/A Snow Light Snow
5:55 AM 21.2 °F 6.8 °F 19.4 °F 93% 30.21 in 2.5 mi North 17.3 mph - N/A Rain Light Freezing Rain
6:15 AM 21.2 °F 7.3 °F 19.4 °F 93% 30.22 in 1.8 mi North 16.1 mph - N/A Rain Light Freezing Rain
7:15 AM 19.4 °F 5.0 °F 19.4 °F 100% 30.24 in 1.5 mi North 16.1 mph - N/A Snow Light Snow
7:35 AM 19.4 °F 4.5 °F 17.6 °F 93% 30.25 in 1.8 mi North 17.3 mph - N/A Rain Light Freezing Rain
7:55 AM 19.4 °F 4.5 °F 17.6 °F 93% 30.26 in 2.0 mi North 17.3 mph - N/A Rain Light Freezing Rain
8:15 AM 19.4 °F 5.0 °F 17.6 °F 93% 30.26 in 2.5 mi North 16.1 mph - N/A Rain Light Freezing Rain
8:35 AM 19.4 °F 5.5 °F 17.6 °F 93% 30.27 in 4.0 mi North 15.0 mph - N/A Rain Light Freezing Rain
8:55 AM 19.4 °F 5.5 °F 17.6 °F 93% 30.28 in 9.0 mi North 15.0 mph - N/A Rain Light Freezing Rain
9:15 AM 19.4 °F 6.0 °F 17.6 °F 93% 30.29 in 2.5 mi North 13.8 mph - N/A Snow Light Snow
9:35 AM 19.4 °F 5.5 °F 17.6 °F 93% 30.30 in 5.0 mi North 15.0 mph 18.4 mph N/A Snow Light Snow
9:55 AM 19.4 °F 5.5 °F 17.6 °F 93% 30.30 in 2.5 mi North 15.0 mph - N/A Snow Light Snow
10:15 AM 19.4 °F 5.0 °F 17.6 °F 93% 30.31 in 2.0 mi North 16.1 mph - N/A Snow Light Snow
10:35 AM 19.4 °F 4.5 °F 17.6 °F 93% 30.31 in 3.0 mi North 17.3 mph - N/A Snow Light Snow
10:55 AM 19.4 °F 4.5 °F 17.6 °F 93% 30.32 in 5.0 mi North 17.3 mph - N/A Rain Light Freezing Rain
11:15 AM 19.4 °F 5.0 °F 17.6 °F 93% 30.32 in 7.0 mi North 16.1 mph 19.6 mph N/A Rain Light Freezing Rain
11:35 AM 21.2 °F 6.4 °F 17.6 °F 86% 30.32 in 7.0 mi North 18.4 mph - N/A Rain Light Freezing Rain
11:55 AM 21.2 °F 7.3 °F 17.6 °F 86% 30.32 in 5.0 mi North 16.1 mph - N/A Rain Light Freezing Rain
12:15 PM 21.2 °F 6.4 °F 17.6 °F 86% 30.32 in 3.0 mi North 18.4 mph 21.9 mph N/A Rain Light Freezing Rain
12:35 PM 21.2 °F 6.8 °F 17.6 °F 86% 30.33 in 5.0 mi North 17.3 mph - N/A Rain Light Freezing Rain
12:55 PM 21.2 °F 6.8 °F 17.6 °F 86% 30.33 in 7.0 mi North 17.3 mph - N/A   Overcast
1:15 PM 21.2 °F 6.4 °F 17.6 °F 86% 30.34 in 10.0 mi North 18.4 mph - N/A   Overcast
1:35 PM 21.2 °F 7.3 °F 17.6 °F 86% 30.34 in 10.0 mi North 16.1 mph 21.9 mph N/A   Overcast
1:55 PM 21.2 °F 6.8 °F 15.8 °F 80% 30.34 in 10.0 mi North 17.3 mph - N/A   Mostly Cloudy
2:15 PM 21.2 °F 7.3 °F 15.8 °F 80% 30.34 in 10.0 mi North 16.1 mph - N/A   Mostly Cloudy
2:35 PM 21.2 °F 6.0 °F 15.8 °F 80% 30.34 in 10.0 mi North 19.6 mph 23.0 mph N/A   Overcast
2:55 PM 21.2 °F 6.4 °F 15.8 °F 80% 30.34 in 10.0 mi North 18.4 mph 24.2 mph N/A   Overcast
3:15 PM 21.2 °F 7.3 °F 17.6 °F 86% 30.34 in 8.0 mi North 16.1 mph - N/A   Overcast
3:35 PM 21.2 °F 7.3 °F 15.8 °F 80% 30.35 in 10.0 mi North 16.1 mph 21.9 mph N/A   Overcast
3:55 PM 21.2 °F 6.8 °F 15.8 °F 80% 30.35 in 10.0 mi North 17.3 mph 21.9 mph N/A   Overcast
4:15 PM 19.4 °F 5.0 °F 15.8 °F 86% 30.36 in 10.0 mi North 16.1 mph - N/A Rain Light Freezing Rain
4:35 PM 19.4 °F 5.5 °F 17.6 °F 93% 30.37 in 9.0 mi North 15.0 mph - N/A Rain Light Freezing Rain
4:55 PM 19.4 °F 6.6 °F 15.8 °F 86% 30.37 in 9.0 mi North 12.7 mph - N/A Rain Light Freezing Rain
5:15 PM 19.4 °F 5.5 °F 15.8 °F 86% 30.37 in 8.0 mi North 15.0 mph - N/A Rain Light Freezing Rain
5:35 PM 19.4 °F 6.0 °F 15.8 °F 86% 30.37 in 7.0 mi North 13.8 mph - N/A Rain Light Freezing Rain
5:55 PM 19.4 °F 5.5 °F 15.8 °F 86% 30.37 in 9.0 mi NNW 15.0 mph - N/A Rain Light Freezing Rain
6:15 PM 19.4 °F 6.0 °F 15.8 °F 86% 30.37 in 10.0 mi NNW 13.8 mph - N/A   Overcast
6:35 PM 19.4 °F 6.6 °F 15.8 °F 86% 30.38 in 10.0 mi NNW 12.7 mph - N/A   Overcast
6:55 PM 19.4 °F 6.6 °F 15.8 °F 86% 30.38 in 10.0 mi NNW 12.7 mph - N/A   Overcast
7:15 PM 19.4 °F 7.2 °F 15.8 °F 86% 30.38 in 10.0 mi NNW 11.5 mph - N/A Snow Light Snow
7:35 PM 19.4 °F 7.2 °F 15.8 °F 86% 30.39 in 10.0 mi NNW 11.5 mph - N/A   Overcast
7:55 PM 17.6 °F 4.3 °F 15.8 °F 93% 30.39 in 10.0 mi NNW 12.7 mph - N/A   Overcast
8:15 PM 17.6 °F 4.3 °F 15.8 °F 93% 30.39 in 10.0 mi NNW 12.7 mph - N/A   Overcast
8:35 PM 17.6 °F 3.2 °F 15.8 °F 93% 30.39 in 10.0 mi NNW 15.0 mph - N/A Snow Light Snow
8:55 PM 17.6 °F 6.4 °F 14.0 °F 86% 30.39 in 10.0 mi NNW 9.2 mph - N/A Snow Light Snow
9:15 PM 17.6 °F 5.7 °F 14.0 °F 86% 30.39 in 10.0 mi NNW 10.4 mph - N/A   Overcast
9:35 PM 17.6 °F 6.4 °F 14.0 °F 86% 30.40 in 10.0 mi NNW 9.2 mph - N/A   Overcast
9:55 PM 17.6 °F 4.3 °F 14.0 °F 86% 30.40 in 10.0 mi NNW 12.7 mph - N/A   Overcast
10:15 PM 17.6 °F 5.7 °F 14.0 °F 86% 30.40 in 10.0 mi NNW 10.4 mph - N/A Snow Light Snow
10:35 PM 17.6 °F 6.4 °F 14.0 °F 86% 30.41 in 9.0 mi NNW 9.2 mph - N/A Snow Light Snow
10:55 PM 17.6 °F 5.7 °F 14.0 °F 86% 30.40 in 10.0 mi NNW 10.4 mph - N/A Snow Light Snow
11:15 PM 17.6 °F 5.0 °F 14.0 °F 86% 30.40 in 10.0 mi NNW 11.5 mph - N/A   Overcast
11:35 PM 15.8 °F 2.7 °F 14.0 °F 93% 30.40 in 10.0 mi NNW 11.5 mph - N/A Snow Light Snow
11:55 PM 15.8 °F 3.4 °F 14.0 °F 93% 30.41 in 10.0 mi NNW 10.4 mph - N/A   Overcast